Location: Barrio Las Umbrías
(40.4173°N, 4.8685°W)
Time: 12:10:11
(UTC+00:00)

CZ-4B R/B - Pass Details

Date: 17 August 2022
Orbit: 352 x 398 km, 97.6° (Epoch: 27 September)

Event Time Altitude Azimuth Distance (km) Brightness Sun altitude
Rises 21:07:46 0° 13° (NNE) 2,373 5.4 -19.8°
Reaches altitude 10° 21:09:46 10° 14° (NNE) 1,506 4.4 -20.1°
Enters shadow 21:12:29 60° 27° (NNE) 487 1.5 -20.5°
